Torna al catalogo

BREEZE-M DEB

TANK

AttivoHEO
NORAD 41312·DEBRIS·🇷🇺 Russia

Lanciato Jan 29, 2016 da Baikonur Cosmodrome

Loading…

Prossimi Passaggi (prossime 24 ore)

TLE

AggiornatoSource: Space-Track

Epoca: Sep 14, 2026, 13:06 UTC

1 41312U 16005C   26257.54622058  .00004647  00000-0  11754-2 0  9998
2 41312  49.4674  26.4983 5784388 119.9694 309.4242  4.35228934163544

Traccia BREEZE-M DEB in tempo reale con AllMySat

Download on the App Store